DW1520 Weather Reports


time (UTC)temp
F
wind
direction
speed
knots
gust
knots
rain 1hr
in
rain 24hr
in
rain mn
in
humidity
%
barometer
mb
20260905230006 77 35 1.7 4.3 0.00 0.00 0.00 80 1012.2
20260905225506 77 32 1.7 4.3 0.00 0.00 0.00 79 1012.1
20260905225006 77 94 0.9 2.6 0.00 0.00 0.00 79 1012.0
20260905224506 77 338 1.7 4.3 0.00 0.00 0.00 80 1011.9
20260905224006 77 358 0.9 4.3 0.00 0.00 0.00 80 1011.9
20260905223506 77 26 3.5 6.1 0.00 0.00 0.00 80 1011.9
20260905222006 78 66 2.6 5.2 0.00 0.00 0.00 79 1011.9
20260905221506 78 2 1.7 7.8 0.00 0.00 0.00 79 1011.9
20260905220506 78 11 1.7 4.3 0.00 0.00 0.00 79 1011.8
20260905220006 78 22 2.6 7.8 0.00 0.00 0.00 79 1011.8
20260905215506 78 65 2.6 7.8 0.00 0.00 0.00 79 1011.7
20260905215007 78 11 1.7 5.2 0.00 0.00 0.00 79 1011.8
20260905214506 78 19 1.7 7.0 0.00 0.00 0.00 80 1012.0
20260905214006 78 22 0.9 6.1 0.00 0.00 0.00 80 1011.9
20260905213506 78 46 2.6 6.1 0.00 0.00 0.00 80 1011.8
20260905213006 78 12 1.7 4.3 0.00 0.00 0.00 80 1011.9
20260905212506 78 336 1.7 2.6 0.00 0.00 0.00 80 1012.0
20260905212006 78 0 0.9 2.6 0.00 0.00 0.00 80 1012.2
20260905211006 78 352 1.7 4.3 0.00 0.00 0.00 79 1012.1
20260905210506 79 352 1.7 2.6 0.00 0.00 0.00 79 1012.1
20260905210006 79 343 1.7 2.6 0.00 0.00 0.00 79 1012.1
20260905205006 79 19 0.9 5.2 0.00 0.00 0.00 79 1012.3
20260905204506 79 76 1.7 2.6 0.00 0.00 0.00 79 1012.4
20260905204006 79 15 0.9 2.6 0.00 0.00 0.00 79 1012.5
20260905203006 79 336 1.7 4.3 0.00 0.00 0.00 79 1012.6
20260905202506 80 351 1.7 2.6 0.00 0.00 0.00 79 1012.6
20260905202006 80 0 1.7 2.6 0.00 0.00 0.00 79 1012.6
20260905201006 79 232 0.9 2.6 0.00 0.00 0.00 78 1012.9
20260905200006 79 193 0.0 2.6 0.00 0.00 0.00 79 1013.1
20260905195506 79 193 0.9 1.7 0.00 0.00 0.00 80 1013.2
20260905195007 79 194 0.0 1.7 0.00 0.00 0.00 80 1013.2
20260905194006 79 166 0.9 2.6 0.00 0.00 0.00 80 1013.3
20260905193506 79 116 0.9 2.6 0.00 0.00 0.00 80 1013.4
20260905193006 79 116 0.9 1.7 0.00 0.00 0.00 80 1013.5
20260905192506 79 116 0.9 2.6 0.00 0.00 0.00 79 1013.4
20260905192006 79 115 0.9 1.7 0.00 0.00 0.00 80 1013.3
20260905191506 79 121 0.0 1.7 0.00 0.00 0.00 79 1013.4
20260905191006 79 121 0.9 2.6 0.00 0.00 0.00 79 1013.5
20260905190506 79 121 0.9 4.3 0.00 0.00 0.00 79 1013.5
20260905190006 79 161 0.9 4.3 0.00 0.00 0.00 80 1013.5
20260905185506 79 111 0.9 2.6 0.00 0.00 0.00 81 1013.4
20260905185007 79 110 0.0 2.6 0.00 0.00 0.00 81 1013.4
20260905184006 78 303 0.9 2.6 0.00 0.00 0.00 81 1013.6
20260905183506 78 344 0.9 2.6 0.00 0.00 0.00 83 1013.5
20260905183006 78 34 1.7 2.6 0.00 0.00 0.00 82 1013.4
20260905182506 77 5 0.0 2.6 0.00 0.00 0.00 84 1013.6
20260905182006 77 5 0.0 0.9 0.00 0.00 0.00 84 1013.8
20260905181506 76 5 0.9 1.7 0.00 0.00 0.00 85 1013.9
20260905181006 76 15 0.0 1.7 0.00 0.00 0.00 85 1013.9
20260905180506 76 31 0.0 1.7 0.00 0.00 0.00 85 1014.0
20260905180006 76 31 0.0 0.0 0.00 0.00 0.00 85 1014.0
20260905175506 76 31 0.0 0.0 0.00 0.00 0.00 85 1014.0
20260905174506 76 355 0.0 0.9 0.00 0.00 0.00 86 1014.2
20260905174006 76 355 0.0 0.9 0.00 0.00 0.00 87 1014.3
20260905173506 75 355 0.0 1.7 0.00 0.00 0.00 87 1014.2
20260905173007 75 355 0.0 1.7 0.00 0.00 0.00 87 1014.2
20260905172505 75 50 0.9 2.6 0.00 0.00 0.00 87 1014.3
20260905172006 75 56 0.9 1.7 0.00 0.00 0.00 87 1014.3
20260905171506 74 325 0.0 1.7 0.00 0.00 0.00 87 1014.4
20260905171006 74 325 0.0 0.9 0.00 0.00 0.00 87 1014.4
20260905170506 74 325 0.9 1.7 0.00 0.00 0.00 88 1014.4
20260905165505 74 325 0.9 1.7 0.00 0.00 0.00 88 1014.5
20260905165006 74 324 0.9 2.6 0.00 0.00 0.00 88 1014.4
20260905164506 74 332 0.9 2.6 0.00 0.00 0.00 88 1014.2
20260905164006 74 350 0.9 2.6 0.00 0.00 0.00 88 1014.1
20260905163506 74 333 0.9 2.6 0.00 0.00 0.00 88 1014.0
20260905162506 74 29 0.9 2.6 0.00 0.00 0.00 89 1014.0
20260905162006 74 29 0.9 2.6 0.00 0.00 0.00 88 1014.0
20260905161006 74 32 1.7 2.6 0.00 0.00 0.00 88 1014.0
20260905160506 74 53 1.7 2.6 0.00 0.00 0.00 89 1014.0
20260905160006 74 144 0.0 1.7 0.00 0.00 0.00 89 1014.0
20260905155506 74 106 0.9 1.7 0.00 0.00 0.00 89 1014.0
20260905155006 73 21 0.9 2.6 0.00 0.00 0.00 90 1013.9
20260905154506 73 331 0.9 2.6 0.00 0.00 0.00 90 1013.8
20260905153506 73 38 0.9 2.6 0.00 0.00 0.00 90 1013.8
20260905153006 73 33 1.7 2.6 0.00 0.00 0.00 91 1013.7
20260905152006 72 13 0.9 2.6 0.00 0.00 0.00 91 1013.7
20260905151506 72 12 0.0 2.6 0.00 0.00 0.00 92 1013.8
20260905151006 72 1 0.9 2.6 0.00 0.00 0.00 92 1013.8
20260905150006 72 5 0.0 2.6 0.00 0.00 0.00 92 1013.5
20260905145506 72 11 0.9 2.6 0.00 0.00 0.00 92 1013.5
20260905145006 71 355 0.9 2.6 0.00 0.00 0.00 92 1013.5
20260905144506 71 48 0.9 2.6 0.00 0.00 0.00 92 1013.5
20260905144006 71 13 0.0 2.6 0.00 0.00 0.00 92 1013.5
20260905143506 71 26 0.9 2.6 0.00 0.00 0.00 92 1013.5
20260905142506 71 5 0.0 1.7 0.00 0.00 0.00 92 1013.4
20260905142006 71 5 0.9 1.7 0.00 0.00 0.00 93 1013.4
20260905141506 71 5 0.0 2.6 0.00 0.00 0.00 93 1013.3
20260905141006 71 33 0.0 1.7 0.00 0.00 0.00 93 1013.3
20260905140506 71 12 0.0 2.6 0.00 0.00 0.00 93 1013.3
20260905140005 71 12 0.0 1.7 0.00 0.00 0.00 92 1013.2
20260905135006 70 16 0.9 1.7 0.00 0.00 0.00 92 1013.1
20260905134506 70 16 0.9 2.6 0.00 0.00 0.00 93 1013.1
20260905134006 70 0 0.9 2.6 0.00 0.00 0.00 93 1013.1
20260905133506 70 44 0.9 2.6 0.00 0.00 0.00 93 1013.0
20260905133006 70 44 0.9 2.6 0.00 0.00 0.00 93 1012.9
20260905132506 70 37 0.9 2.6 0.00 0.00 0.00 93 1012.9
20260905132006 70 342 0.0 1.7 0.00 0.00 0.00 92 1012.8
20260905131506 70 57 0.9 2.6 0.00 0.00 0.00 92 1012.6
20260905131006 70 17 0.9 2.6 0.00 0.00 0.00 92 1012.5
20260905130506 70 11 0.9 1.7 0.00 0.00 0.00 92 1012.3
20260905130006 70 25 0.9 2.6 0.00 0.00 0.00 92 1012.2
20260905125510 70 0 0.9 2.6 0.00 0.00 0.00 92 1012.1
20260905125006 70 9 1.7 2.6 0.00 0.00 0.00 93 1011.9
20260905124506 70 7 1.7 2.6 0.00 0.00 0.00 93 1011.8
20260905124006 70 34 1.7 4.3 0.00 0.00 0.00 93 1011.7
20260905123505 70 345 0.9 2.6 0.00 0.00 0.00 92 1011.6
20260905123006 70 34 0.9 1.7 0.00 0.00 0.00 92 1011.6
20260905122006 71 358 0.9 2.6 0.00 0.00 0.00 93 1011.7
20260905121506 71 351 0.9 1.7 0.00 0.00 0.00 93 1011.6
20260905120506 71 351 0.9 2.6 0.00 0.00 0.00 93 1011.6
20260905120006 71 355 0.9 2.6 0.00 0.00 0.00 93 1011.6
20260905115505 71 355 0.9 2.6 0.00 0.00 0.00 93 1011.7
20260905115006 71 355 0.0 1.7 0.00 0.00 0.00 93 1011.7
20260905114506 71 355 0.9 2.6 0.00 0.00 0.00 92 1011.6
20260905114006 71 355 0.0 0.9 0.00 0.00 0.00 93 1011.7
20260905113508 71 355 0.0 1.7 0.00 0.00 0.00 93 1011.6
20260905113006 71 355 0.9 2.6 0.00 0.00 0.00 93 1011.5
20260905112506 71 9 0.9 1.7 0.00 0.00 0.00 93 1011.5
20260905112006 71 5 0.9 2.6 0.00 0.00 0.00 93 1011.4
20260905111506 71 16 0.9 1.7 0.00 0.00 0.00 92 1011.4
20260905111006 71 26 0.9 2.6 0.00 0.00 0.00 92 1011.4
20260905110506 71 50 0.0 1.7 0.00 0.00 0.00 92 1011.4
20260905110005 71 50 0.0 0.9 0.00 0.00 0.00 93 1011.5
20260905105506 71 50 0.9 1.7 0.00 0.00 0.00 93 1011.4
20260905105006 71 355 0.0 1.7 0.00 0.00 0.00 93 1011.4
20260905104006 71 355 0.0 0.9 0.00 0.00 0.00 93 1011.4
20260905103506 71 355 0.0 0.9 0.00 0.00 0.00 93 1011.4
20260905103006 71 355 0.9 2.6 0.00 0.00 0.00 93 1011.4
20260905102506 71 355 0.9 2.6 0.00 0.00 0.00 93 1011.3
20260905102006 71 79 0.0 0.9 0.00 0.00 0.00 92 1011.5
20260905101006 70 79 0.0 1.7 0.00 0.00 0.00 92 1011.1
20260905100506 70 25 0.0 1.7 0.00 0.00 0.00 92 1010.8
20260905100006 70 340 0.9 2.6 0.00 0.00 0.00 92 1010.8
20260905095506 70 22 0.0 2.6 0.00 0.00 0.00 92 1010.7
20260905095006 70 22 0.9 1.7 0.00 0.00 0.00 92 1010.7
20260905094505 70 348 0.9 1.7 0.00 0.00 0.00 92 1010.6
20260905094006 70 5 0.9 1.7 0.00 0.00 0.00 92 1010.6
20260905093505 70 5 0.9 1.7 0.00 0.00 0.00 92 1010.7
20260905093006 70 5 0.9 2.6 0.00 0.00 0.00 92 1010.6
20260905092506 70 334 0.9 2.6 0.00 0.00 0.00 92 1010.6
20260905091506 70 327 0.0 1.7 0.00 0.00 0.00 92 1010.8
20260905090506 70 6 0.9 2.6 0.00 0.00 0.00 92 1010.9
20260905090006 70 5 0.0 1.7 0.00 0.00 0.00 92 1010.9
20260905085506 70 5 0.0 0.9 0.00 0.00 0.00 92 1011.0
20260905085006 70 5 0.0 2.6 0.00 0.00 0.00 92 1011.0
20260905084506 69 5 0.9 1.7 0.00 0.00 0.00 92 1011.0
20260905084006 69 5 0.0 0.0 0.00 0.00 0.00 92 1011.1
20260905083506 69 5 0.0 0.0 0.00 0.00 0.00 92 1011.2
20260905082506 70 5 0.0 0.0 0.00 0.00 0.00 92 1011.2
20260905082006 70 5 0.0 1.7 0.00 0.00 0.00 92 1011.0
20260905081505 70 5 0.0 0.9 0.00 0.00 0.00 91 1011.0
20260905081006 70 5 0.0 0.0 0.00 0.00 0.00 91 1011.1
20260905080505 70 5 0.0 0.9 0.00 0.00 0.00 91 1011.1
20260905080006 70 5 0.0 0.0 0.00 0.00 0.00 91 1011.2
20260905075505 71 5 0.0 0.9 0.00 0.00 0.00 91 1011.1
20260905075006 71 5 0.0 0.0 0.00 0.00 0.00 91 1011.1
20260905074506 71 5 0.0 0.0 0.00 0.00 0.00 91 1011.1
20260905073505 71 5 0.0 0.9 0.00 0.00 0.00 91 1011.0
20260905073006 71 5 0.0 0.9 0.00 0.00 0.00 91 1011.0
20260905072505 71 5 0.0 0.9 0.00 0.00 0.00 91 1011.1
20260905072006 71 5 0.0 0.9 0.00 0.00 0.00 91 1011.0
20260905071506 71 5 0.0 0.0 0.00 0.00 0.00 91 1010.9
20260905070506 71 5 0.0 0.0 0.00 0.00 0.00 91 1010.8
20260905070005 72 5 0.0 0.0 0.00 0.00 0.00 91 1010.9
20260905065006 72 5 0.0 0.0 0.00 0.00 0.00 91 1010.8
20260905064505 72 5 0.0 0.9 0.00 0.00 0.00 91 1010.9
20260905063505 72 5 0.0 0.9 0.00 0.00 0.00 90 1010.8
20260905063006 72 5 0.0 0.0 0.00 0.00 0.00 90 1010.9
20260905062505 72 5 0.0 0.9 0.00 0.00 0.00 90 1010.7
20260905062006 73 5 0.0 0.9 0.00 0.00 0.00 90 1010.7
20260905061506 73 5 0.0 0.0 0.00 0.00 0.00 90 1010.8
20260905060505 73 5 0.0 0.0 0.00 0.00 0.00 90 1010.6
20260905060005 73 5 0.0 0.9 0.00 0.00 0.00 90 1010.7
20260905055505 73 5 0.0 0.9 0.00 0.00 0.00 90 1010.7
20260905055006 73 5 0.0 0.9 0.00 0.00 0.00 90 1010.7
20260905054505 74 5 0.0 0.9 0.00 0.00 0.00 90 1010.6
20260905053006 74 5 0.0 0.9 0.00 0.00 0.00 90 1010.5
20260905052506 74 5 0.0 0.9 0.00 0.00 0.00 90 1010.4
20260905052005 74 5 0.0 1.7 0.00 0.00 0.00 90 1010.3
20260905051506 75 5 0.0 0.0 0.00 0.00 0.00 90 1010.2
20260905051006 75 5 0.0 0.0 0.00 0.00 0.00 90 1010.2
20260905050505 75 5 0.0 0.0 0.00 0.00 0.00 90 1010.2
20260905050006 75 5 0.0 0.0 0.00 0.00 0.00 90 1010.2
20260905045506 75 5 0.0 0.0 0.00 0.00 0.00 90 1010.1
20260905045006 75 5 0.0 0.0 0.00 0.00 0.00 90 1010.1
20260905044505 75 5 0.0 0.0 0.00 0.00 0.00 90 1010.2
20260905044006 76 5 0.0 0.0 0.00 0.00 0.00 90 1010.2
20260905043506 76 5 0.0 0.0 0.00 0.00 0.00 90 1010.1
20260905042506 76 5 0.0 0.0 0.00 0.00 0.00 89 1010.2
20260905042006 76 5 0.0 0.0 0.00 0.00 0.00 89 1010.2
20260905041506 76 5 0.0 0.0 0.00 0.00 0.00 89 1010.2
20260905041006 77 5 0.0 0.0 0.00 0.00 0.00 89 1010.2
20260905040506 77 5 0.0 0.0 0.00 0.00 0.00 89 1010.1
20260905035506 77 5 0.0 0.0 0.00 0.00 0.00 88 1010.1
20260905034506 78 5 0.0 0.0 0.00 0.00 0.00 88 1010.2
20260905033506 78 5 0.0 0.9 0.00 0.00 0.00 88 1010.1
20260905032506 79 5 0.0 0.9 0.00 0.00 0.00 87 1010.1
20260905031506 79 5 0.0 0.9 0.00 0.00 0.00 87 1010.1
20260905031006 79 5 0.0 1.7 0.00 0.00 0.00 87 1010.1
20260905030005 80 11 0.9 1.7 0.00 0.00 0.00 86 1010.1
20260905025506 80 11 0.9 2.6 0.00 0.00 0.00 86 1010.2
20260905024506 80 345 0.0 1.7 0.00 0.00 0.00 87 1010.2
20260905024006 80 344 0.9 2.6 0.00 0.00 0.00 87 1010.2
20260905023505 80 344 0.0 1.7 0.00 0.00 0.00 87 1010.0
20260905023005 81 344 0.9 2.6 0.00 0.00 0.00 87 1010.0
20260905022506 81 344 0.9 2.6 0.00 0.00 0.00 87 1009.9
20260905022006 81 140 0.9 2.6 0.00 0.00 0.00 87 1009.8
20260905021505 81 155 0.9 1.7 0.00 0.00 0.00 87 1009.8
20260905021006 81 155 0.9 2.6 0.00 0.00 0.00 86 1009.7
20260905020506 81 155 0.9 1.7 0.00 0.00 0.00 86 1009.6
20260905020006 81 155 0.0 0.9 0.00 0.00 0.00 86 1009.6
20260905015505 81 155 0.0 1.7 0.00 0.00 0.00 86 1009.4
20260905015006 82 155 0.0 1.7 0.00 0.00 0.00 85 1009.3
20260905014505 82 155 0.0 0.9 0.00 0.00 0.00 85 1009.3
20260905014006 82 155 0.0 0.0 0.00 0.00 0.00 84 1009.3
20260905013506 82 155 0.0 0.9 0.00 0.00 0.00 84 1009.2
20260905013006 83 155 0.0 1.7 0.00 0.00 0.00 84 1009.2
20260905012506 83 155 0.0 0.0 0.00 0.00 0.00 83 1009.0
20260905012006 83 155 0.0 0.0 0.00 0.00 0.00 83 1009.0
20260905011505 83 155 0.0 0.0 0.00 0.00 0.00 82 1009.0
20260905011006 84 155 0.0 0.9 0.00 0.00 0.00 82 1008.8
20260905010506 84 155 0.0 0.0 0.00 0.00 0.00 82 1008.8
20260905010005 84 155 0.0 0.0 0.00 0.00 0.00 81 1008.7
20260905005506 85 155 0.0 0.9 0.00 0.00 0.00 81 1008.7
20260905005005 85 155 0.0 1.7 0.00 0.00 0.00 80 1008.6
20260905004006 85 155 0.9 1.7 0.00 0.00 0.00 80 1008.6
20260905003506 85 155 0.0 0.9 0.00 0.00 0.00 80 1008.6
20260905003006 85 155 0.9 1.7 0.00 0.00 0.00 79 1008.5
20260905002505 85 155 0.0 0.9 0.00 0.00 0.00 78 1008.5
20260905002006 86 155 0.0 1.7 0.00 0.00 0.00 78 1008.3
20260905001505 86 155 0.0 1.7 0.00 0.00 0.00 77 1008.3
20260905001006 86 155 0.9 2.6 0.00 0.00 0.00 76 1008.2
20260905000505 86 155 0.9 1.7 0.00 0.00 0.00 76 1008.2
20260904235505 87 155 1.7 2.6 0.00 0.00 0.00 75 1008.2
20260904234505 87 155 1.7 2.6 0.00 0.00 0.00 74 1008.2
20260904234006 87 155 2.6 6.1 0.00 0.00 0.00 73 1008.2
20260904233506 87 165 1.7 5.2 0.00 0.00 0.00 73 1008.2
20260904233006 87 165 1.7 5.2 0.00 0.00 0.00 73 1008.2
20260904232006 88 162 1.7 2.6 0.00 0.00 0.00 72 1008.2
20260904231506 88 162 0.9 1.7 0.00 0.00 0.00 73 1008.1
20260904231006 88 163 1.7 4.3 0.00 0.00 0.00 72 1008.1